Showing default

LAPAN A3, 41603

Orbit data source: Space-Track

LAPAN A3, 41603 is a payload satellite owned by LAPAN (ID) in SSO that was launched on Wed, 22 Jun 2016 UTC via a PSLV-XL launch vehicle from the Sirharikota (SRI). Payload-class satellites include a variety of spacecraft equipped with specific instruments for various scientific and technological missions. These include communications satellites like Starlink; space stations such as the ISS; scientific satellites like the Hubble; Earth observation satellites from companies like Planet Labs, Umbra, and HawkEye 360; GPS; miniature CubeSats for education and research; and military/defense satellites.

Loading next visibility...
Identifier
41603, 2016-040E
Orbit
SSO
Country
Flag of IDID / INDO
Related business
Manufacturer
LAPAN
Mission
Operational Civil Imaging
Bus & Motor
TUBSAT, Unknown motor
Mass
120 kg wet, 120 kg dry
Launch date (UTC)
2016-06-22 (10 years ago)
Launch vehicle
PSLV-XL
Launch site
Sirharikota (SRI)
Object type
Payload
Rocket body
Debris
Shape & HBR
Box, 0.3 m
Radar Cross Section
0.120 m², Medium (>0.1 m² and < 1m²)

Expand to show TLE details & history
Last TLE update: 18 hours ago

TLE from 18 hours ago
0 LAPAN A3
1 41603U 16040E   26145.60677850  .00003015  00000-0  96915-4 0  9995
2 41603  97.1486 142.4982 0012253  95.8370 264.4270 15.32940071551352
Epoch: 2026-05-25T14:33Z
TLE epoch observation values (Epoch: 2026-05-25T14:33:45.662Z)
Latitude
-0.00002°
Longitude
40.86579°
Altitude
470.986 km
Speed
7.63 km/s
True Right ascension
09h 29m 59s
True Declination
0° 00' 00"
Sunlit
Object was in daylight at epoch
Visualization orbit readout
Latitude
Unknown
Longitude
Unknown
Altitude
Unknown
Speed
Unknown
Apparent Right ascension
Unknown
Apparent Declination
Unknown
Sunlit
N/A
Visualization observer readout
Local Sidereal Time
17:30:57
Azimuth
Unknown
Elevation
Unknown
Doppler factor
Unknown
Orbital elements
Apogee altitude
472.367 km
Perigee altitude
455.6 km
Semi-major axis
6,842.121 km
Eccentricity
0.00123
Inclination
97.1486°
RAAN
142.4982°
Arg. of periapsis
95.837°
True anomaly
264.28728°
Mean anomaly
264.427°
Eccentric anomaly
264.35714°
Mean motion
3.83493 °/min
Orbital period
93.87 mins
BSTAR
0.000096915
Loading maneuver chart data...
Computing Atmospheric mass density...

Documentation

Showing up to 5 results
|